Location: ??????????
(54.5954°N, 39.0779°E)
Time: 14:08:30
(UTC+00:00)

Daily predictions for brighter satellites

Satellite Brightness Start Highest point End
(mag) Time Altitude Azimuth Time Altitude Azimuth Time Altitude Azimuth
Ariane Rocket 3.2 18:53:12 10° S 18:58:17 75° WSW 19:03:23 10° NNW
SWARM C 4.5 18:55:06 10° N 18:58:21 88° W 19:01:34 10° S
SWARM A 4.1 18:55:14 10° N 18:58:29 79° E 19:01:43 10° S
BREEZE-M R/B 4.3 18:55:05 10° SSW 18:59:03 35° SE 19:06:13 10° E
Cosmos 2315 Rocket 4.2 18:53:53 10° SSE 18:59:56 56° E 19:05:59 10° NNE
IRS-1C Rocket 4.3 18:54:47 10° S 19:00:03 75° WSW 19:05:20 10° NNW
NOSS 2-3 (E) 3.6 18:58:06 10° WSW 19:01:46 69° NW 19:05:49 10° NE
Cosmos 1833 Rocket 3.9 18:57:28 10° NW 19:02:31 35° WSW 19:07:33 10° S
USA 59 Rocket 0.3 18:59:35 10° S 19:02:32 25° SE 19:05:06 10° ENE
Cosmos 1538 Rocket 4.3 18:59:05 10° SSW 19:04:18 75° WNW 19:09:36 10° NNE
Cosmos 1703 3.9 19:02:26 10° SSW 19:05:28 43° WNW 19:08:32 10° N
Iridium 4 Rocket 3.4 19:00:42 10° S 19:05:45 82° W 19:10:23 10° N
Meteor 1-13 Rocket 4.4 19:00:50 10° S 19:06:47 83° ESE 19:12:46 10° NNE
Terra 4.4 19:04:28 10° WSW 19:07:13 15° W 19:09:58 10° NW
NOSS 2-1 (D) 4.0 19:04:19 10° S 19:07:18 24° SE 19:09:53 10° ENE
CZ-4B R/B 3.5 19:04:07 10° S 19:08:00 52° W 19:11:57 10° NNW
Okean O Rocket 3.5 19:04:20 10° SSW 19:08:02 26° W 19:11:47 10° NW
Cosmos 923 Rocket 4.0 19:05:34 10° SSW 19:10:43 65° ESE 19:15:54 10° NNE
USA 276 3.6 19:11:39 10° SSE 19:12:11 10° SSE 19:12:43 10° SE
Cosmos 1470 Rocket 3.6 19:08:25 10° N 19:12:55 82° ENE 19:17:21 10° SSE
CZ-4B R/B 3.9 19:08:14 10° S 19:13:22 63° WSW 19:18:36 10° NNW
Lacrosse 4 Rocket 3.6 19:11:25 10° NNW 19:14:47 22° NNE 19:18:08 10° E
S3M 4.0 19:11:59 10° S 19:18:06 86° ESE 19:24:21 10° NNE
Cosmos 2112 Rocket 4.3 19:13:22 10° S 19:18:17 48° ESE 19:23:17 10° NE
Cosmos 1110 Rocket 4.2 19:14:41 10° NNW 19:19:52 64° ENE 19:24:59 10° SE
Cosmos 1933 Rocket 4.1 19:16:01 10° N 19:20:13 47° ENE 19:24:24 10° SSE
Helios 1B rocket 3.7 19:17:50 10° ESE 19:20:38 23° ENE 19:23:25 10° N
NOSS 3-2 (C) 3.8 19:16:01 10° WSW 19:21:20 67° NNW 19:27:55 10° NE
Cosmos 1953 3.6 19:19:25 10° NNW 19:22:35 30° W 19:25:44 10° SSW
Cosmos 1709 Rocket 4.3 19:16:17 10° NNW 19:22:39 71° W 19:28:58 10° S
GP-B 3.9 19:18:33 10° N 19:22:49 51° W 19:27:03 10° SSW
Cosmos 1328 Rocket 3.6 19:18:51 10° SSW 19:23:11 82° WNW 19:27:31 10° N
Cosmos 883 Rocket 4.5 19:17:37 10° S 19:23:44 80° E 19:29:53 10° NNE
Cosmos 1371 Rocket 4.3 19:19:29 10° NNW 19:24:41 65° WSW 19:29:48 10° SSE
Cosmos 2082 Rocket 2.2 19:20:31 10° NW 19:26:12 86° WSW 19:31:45 10° SSE
NOSS 2-1 (C) 3.7 19:23:39 10° SSW 19:26:52 30° SE 19:29:36 10° ENE
Okean 3 4.3 19:23:29 10° SSE 19:27:03 33° E 19:30:40 10° NNE
Cosmos 2184 Rocket 4.5 19:23:36 10° N 19:29:45 53° ENE 19:35:53 10° SSE
Cosmos 1452 Rocket 4.0 19:24:52 10° NNW 19:30:03 54° ENE 19:35:13 10° SE
Cosmos 1441 Rocket 4.1 19:27:47 11° SSE 19:30:16 25° E 19:32:59 10° NE
CENTAUR R/B 4.2 19:24:28 10° WNW 19:30:55 44° N 19:38:54 10° ENE
Cosmos 2278 Rocket 2.3 19:28:10 10° SSW 19:33:43 60° ESE 19:39:18 10° NE
Cosmos 1812 2.0 19:32:21 10° N 19:33:53 27° ENE 19:34:54 15° SE
Cosmos 494 Rocket 4.0 19:31:11 10° SSW 19:36:21 66° ESE 19:41:35 10° NNE
CZ-2C R/B 2.8 19:34:19 10° S 19:36:56 42° W 19:39:35 10° NNW
USA 238 DEB 3.6 19:31:15 10° SSW 19:37:22 66° SE 19:44:12 10° NE
USA 238 3.6 19:31:28 10° SSW 19:37:36 66° SE 19:44:25 10° NE
Timation 2 Rocket 4.4 19:31:43 10° S 19:37:41 45° ESE 19:43:57 10° NE
Meteor 1-21 4.3 19:32:27 10° SSW 19:38:06 89° WNW 19:43:50 10° NNE
Helios 1A 3.6 19:37:58 10° NNE 19:41:40 36° E 19:44:59 12° SSE
Cosmos 1331 Rocket 4.0 19:39:08 10° NNW 19:44:20 88° ENE 19:49:09 12° SSE
Cosmos 1943 Rocket 2.2 19:40:15 10° SSW 19:45:54 86° ESE 19:51:34 10° NNE
USA 308 4.0 19:49:06 12° SE 19:49:09 12° SE 19:50:28 10° ESE
Cosmos 1869 Rocket 3.6 19:48:12 10° N 19:52:31 70° ENE 19:56:19 13° SSE
Lacrosse 5 rocket 1.3 19:49:54 10° W 19:53:28 69° NNW 19:56:58 10° ENE
ARIANE 5 R/B 3.4 19:50:27 11° SE 19:54:32 44° ENE 19:58:44 10° N
CZ-2C R/B 4.2 19:54:55 10° ESE 19:59:15 27° NE 20:03:40 10° N
USA 81 4.1 19:58:28 10° N 20:03:46 84° W 20:08:36 12° S
Cosmos 1515 Rocket 3.6 20:00:01 10° SSW 20:04:20 77° WNW 20:08:41 10° N
Cosmos 1733 Rocket 3.8 20:00:27 10° N 20:04:33 41° ENE 20:08:13 12° SE
COSMOS 2406 3.2 20:02:26 10° NW 20:08:10 86° WSW 20:13:17 13° SSE
Cosmos 1048 Rocket 4.1 20:03:55 10° S 20:09:04 62° ESE 20:14:19 10° NNE
NOSS 7 (E) 4.2 20:05:49 10° NW 20:09:04 81° SW 20:11:47 14° SE
Cosmos 1680 Rocket 3.9 20:04:23 10° SW 20:09:32 66° WNW 20:14:45 10° NNE
ALOS 2 3.1 20:06:36 13° SE 20:10:27 53° ENE 20:14:45 10° N
Okean 2 4.0 20:08:43 10° SSW 20:12:27 48° WNW 20:16:13 10° N
Cosmos 2369 Rocket 3.6 20:08:55 12° SE 20:12:31 22° ESE 20:16:41 10° NE
Cosmos 1400 Rocket 3.7 20:12:14 10° NNW 20:15:38 36° W 20:18:44 12° SSW
Cosmos 972 Rocket 4.2 20:11:55 10° NNW 20:17:38 75° ENE 20:22:12 13° SSE
USA 215 3.3 20:13:58 10° SE 20:20:26 65° SSW 20:26:57 10° WNW
IKONOS-2 4.5 20:16:48 10° NNE 20:20:54 83° WNW 20:24:52 11° SSW
Cosmos 1656 Rocket 4.0 20:18:20 12° S 20:23:12 50° ESE 20:28:35 10° NE
USA 290 3.2 20:20:41 10° NNW 20:23:40 39° NE 20:26:23 12° SE
ARIANE 6 FM1 Upper Stage 3.8 20:22:13 16° S 20:24:32 25° SE 20:27:55 10° ENE
Cosmos 1315 Rocket 3.7 20:22:03 10° N 20:25:38 38° ENE 20:28:46 13° SE
Cosmos 2074 Rocket 4.2 20:22:19 10° NNW 20:28:29 69° W 20:33:59 13° S
Cosmos 1302 Rocket 4.0 20:23:46 10° NNW 20:29:05 90° WSW 20:33:36 14° SSE
NOSS 2-1 (E) 2.8 20:28:30 10° SW 20:32:05 85° NW 20:35:09 10° NE
NOSS 3-1 (C) 3.8 20:34:30 16° S 20:37:41 32° ESE 20:42:35 10° ENE
PSLV R/B 4.2 20:33:47 10° NNE 20:38:18 47° E 20:41:46 16° SSE
Cosmos 2344 3.7 20:30:55 10° WSW 20:38:21 73° NW 20:45:48 10° NE
Okean 1-7 3.5 20:35:56 16° SSE 20:38:58 46° E 20:43:02 10° NNE
Spot 4 3.9 20:38:57 16° S 20:42:51 73° WSW 20:47:41 10° NNW
USA 276 2.6 20:42:01 10° SW 20:44:12 26° SSE 20:46:37 10° ESE
Cosmos 220 Rocket 4.2 20:46:28 10° NNW 20:50:39 65° ENE 20:54:16 13° SE
Cosmos 1328 3.5 20:48:02 17° SSW 20:50:42 84° W 20:54:15 10° N
USA 59 Rocket 0.5 20:47:51 10° WSW 20:50:53 41° NNW 20:53:41 10° NE
Lacrosse 4 Rocket 1.5 20:48:56 10° NW 20:53:10 80° NE 20:57:02 12° SE
Helios 1B rocket 2.9 20:51:01 16° SSW 20:53:23 37° W 20:56:38 10° NNW
NOSS 2-1 (D) 3.9 20:52:35 10° WSW 20:55:45 44° NNW 20:58:36 10° NE
Nadezhda 1 Rocket 4.0 20:51:27 14° S 20:56:54 90° NNW 21:03:13 10° N
Cosmos 2218 Rocket 4.3 20:50:45 10° N 20:57:03 63° ENE 21:02:35 13° SSE
Cosmos 1992 Rocket 4.0 20:53:18 10° NNW 20:58:33 88° WSW 21:02:55 15° SSE
COSMOS 2455 4.0 20:55:28 15° SSE 20:59:18 27° ESE 21:04:16 10° NE
ATLAS 5 CENTAUR R/B 1.0 20:58:21 20° SSW 21:00:02 43° SE 21:03:04 10° ENE
Meteor 1-24 Rocket 4.1 20:59:01 16° S 21:03:51 60° E 21:09:47 10° NNE
GEOS 3 Rocket 3.7 20:59:58 11° SE 21:05:14 72° SW 21:10:39 10° NW
ACS3 Solar Sail 2.5 21:03:39 10° NNE 21:08:53 37° E 21:13:26 14° SSE
Cosmos 2082 Rocket 4.0 21:05:38 10° WNW 21:09:28 19° W 21:13:18 10° SW
USA 308 2.6 21:07:45 15° SW 21:10:03 43° SSE 21:13:55 10° E
NOSS 2-1 (C) 4.2 21:12:28 10° W 21:15:32 37° NNW 21:18:19 10° NE
Helios 1A 4.5 21:12:47 10° N 21:16:16 30° WNW 21:19:44 10° WSW
MetOp-A 3.2 21:15:10 18° SSE 21:17:54 84° WSW 21:21:42 10° NNW
Cosmos 2278 Rocket 3.6 21:12:50 10° WSW 21:18:06 38° NW 21:23:23 10° NNE
Cosmos 1869 3.0 21:17:15 10° N 21:20:43 75° ENE 21:23:05 19° SSE
CENTAUR R/B 3.9 21:15:40 10° NW 21:23:00 56° NNE 21:31:53 10° ESE
Cosmos 614 Rocket 4.2 21:18:25 10° SW 21:23:27 65° WNW 21:28:30 10° NNE
NOSS 2-2 (C) 3.7 21:20:28 10° NW 21:23:44 58° NE 21:27:58 10° ESE
SL-4 R/B 2.1 21:22:40 17° SSW 21:24:33 30° SSE 21:27:23 10° E
SL-12 R/B(2) 4.4 21:16:31 10° SSW 21:24:35 72° SE 21:34:38 10° NE
SL-8 Rocket 4.0 21:18:26 10° NNW 21:24:37 79° W 21:29:41 16° S
Meteor 2-5 Rocket 3.9 21:21:58 16° S 21:26:41 75° E 21:32:37 10° NNE
Cosmos 1174 4.4 21:23:53 10° WSW 21:27:27 45° NW 21:30:32 10° NE
Lacrosse 5 rocket 1.5 21:26:44 10° WNW 21:30:14 59° N 21:33:39 10° E
Cosmos 1943 Rocket 4.1 21:25:26 10° W 21:30:19 29° NW 21:35:11 10° NNE
Cosmos 1300 Rocket 3.9 21:26:22 10° N 21:30:41 59° ENE 21:34:16 14° SSE
ARIANE 5 R/B 3.9 21:27:49 14° SSW 21:30:59 29° W 21:34:51 10° NNW
SL-8 R/B 4.1 21:29:47 10° WSW 21:34:12 40° S 21:38:38 10° ESE
CZ-2C R/B 3.1 21:29:11 10° NNE 21:34:40 88° ESE 21:38:51 16° SSW
Cosmos 1833 4.3 21:33:17 10° NW 21:38:53 64° WSW 21:43:41 14° SSE
Cosmos 2341 Rocket 4.1 21:32:45 10° NNW 21:38:58 67° W 21:44:01 16° S
CZ-2C R/B 2.7 21:34:58 16° S 21:39:06 67° WSW 21:44:25 10° NNW
BREEZE-M DEB (TANK) 3.7 21:29:50 10° W 21:40:26 43° SSW 21:44:13 10° SE
Cosmos 1733 Rocket 4.4 21:38:24 10° NNW 21:42:02 27° W 21:45:08 13° SW
SAR-Lupe-2 4.4 21:42:23 18° SSW 21:44:11 32° W 21:47:08 10° NNW
ALOS 2 4.2 21:44:00 12° SW 21:47:04 24° W 21:50:40 10° NW
Meteor 2-13 Rocket 4.5 21:43:01 15° SSW 21:48:10 83° WNW 21:54:19 10° N
Cosmos 1707 Rocket 4.3 21:45:49 13° SW 21:49:30 47° WNW 21:53:48 10° N
Cosmos 2297 Rocket 3.5 21:44:40 10° NNW 21:50:01 40° NE 21:55:21 10° ESE
Cosmos 2228 Rocket 3.4 21:48:39 16° SSW 21:52:08 61° WNW 21:56:32 10° N
Cosmos 1703 Rocket 3.6 21:49:16 17° S 21:52:33 78° E 21:56:59 10° NNE
OPS 8737 4.1 21:50:06 10° NW 21:53:24 82° SW 21:56:29 10° SE
Landsat 5 3.6 21:50:02 10° NNE 21:53:40 51° E 21:56:17 18° S
Cosmos 1356 Rocket 4.0 21:50:20 10° NNW 21:54:10 43° W 21:56:55 17° SSW
Cosmos 2369 Rocket 2.2 21:50:39 12° SW 21:55:52 84° WNW 22:01:32 10° NNE
Meteor 2-8 Rocket 4.5 21:50:57 10° NNW 21:57:10 88° WSW 22:02:38 14° S
USA 290 4.0 21:55:13 10° WNW 21:57:29 18° WSW 21:58:47 15° SW
Cosmos 2297 3.8 21:54:48 13° SSW 22:00:02 88° WNW 22:05:48 10° NNE
Cosmos 1315 Rocket 4.2 21:57:53 10° NW 22:01:00 24° W 22:03:25 14° SW
ARIANE 6 FM1 Upper Stage 2.8 21:59:01 10° WSW 22:03:11 75° NW 22:07:17 10° NE
USA 215 4.2 22:00:17 15° S 22:04:19 26° SW 22:09:39 10° WNW
Cosmos 540 Rocket 3.7 22:04:06 10° NNW 22:09:13 71° ENE 22:14:17 10° SE
Cosmos 1934 Rocket 4.5 22:04:14 10° N 22:10:30 61° ENE 22:16:48 10° SSE
In-Cosmos 22 Rocket 4.4 22:08:41 15° S 22:13:19 67° E 22:18:59 10° NNE
USA 276 2.6 22:14:07 10° WSW 22:16:32 28° S 22:19:06 10° SE
USA 32 4.3 22:11:58 10° N 22:17:11 68° E 22:22:18 10° SSE
NOSS 3-1 (A) 3.1 22:18:34 14° SSW 22:22:41 65° SE 22:28:34 10° NE
NOSS 3-1 (C) 3.4 22:22:56 10° WSW 22:27:51 68° NNW 22:34:02 10° NE
Cosmos 407 Rocket 4.4 22:24:23 12° S 22:28:38 38° ESE 22:33:22 10° NE
Nadezhda 3 Rocket 4.1 22:24:15 14° S 22:29:47 82° E 22:36:07 10° NNE
Cosmos 1346 Rocket 3.3 22:27:05 14° SSE 22:29:59 46° E 22:33:31 10° NNE
Lacrosse 4 Rocket 3.1 22:27:33 10° WNW 22:30:25 18° WSW 22:32:24 13° SW
DELTA 2 DEB (DPAF) 3.9 22:27:29 10° NNE 22:31:00 58° ESE 22:33:46 15° S
USA 308 2.5 22:28:21 10° W 22:31:53 80° S 22:36:09 10° E
Cosmos 2181 Rocket 4.4 22:28:00 13° SSW 22:33:40 61° WNW 22:40:04 10° N
Cosmos 1818 3.7 22:30:37 10° SW 22:36:04 83° NW 22:41:35 10° NE
ADEOS Rocket 4.0 22:30:39 10° NNE 22:36:28 39° E 22:41:46 10° SSE
NOSS 2-2 (E) 3.3 22:33:17 10° NW 22:36:38 76° NE 22:41:00 10° SE
USA 59 Rocket 2.2 22:38:04 10° NW 22:40:05 17° N 22:42:07 10° NE
Cosmos 1782 Rocket 4.3 22:37:54 10° NNW 22:42:00 40° W 22:45:24 14° SSW
ATLAS 5 CENTAUR R/B 2.5 22:39:15 10° W 22:42:01 31° NNW 22:45:07 10° NE
COSMOS 2455 3.0 22:38:39 10° SW 22:44:41 81° NW 22:50:45 10° NE
Cosmos 304 Rocket 4.0 22:40:42 14° S 22:44:44 61° ESE 22:49:28 10° NNE
Cosmos 1140 Rocket 3.5 22:43:28 13° SSW 22:48:02 84° WNW 22:53:11 10° NNE
ACS3 Solar Sail 2.2 22:45:52 10° N 22:51:17 49° WNW 22:56:47 10° SW
Cosmos 1656 4.3 22:46:54 12° S 22:51:46 46° ESE 22:57:04 10° NE
CZ-4C R/B 3.4 22:49:58 10° N 22:53:34 58° WNW 22:56:38 13° SSW
Cosmos 1763 Rocket 3.7 22:50:51 10° NW 22:55:44 50° WSW 23:00:35 10° S
Cosmos 371 Rocket 3.5 22:52:11 13° SSW 22:56:29 67° ESE 23:01:17 10° NNE
SL-4 R/B 1.5 22:58:22 10° WSW 23:01:27 49° S 23:04:29 10° ESE
Cosmos 1697 Rocket 4.4 22:59:26 10° SSE 23:03:44 23° ESE 23:08:02 10° NE
Cosmos 2227 Rocket 3.1 22:58:55 10° NNW 23:04:29 54° NE 23:10:01 10° SE
NOSS 2-2 (D) 3.5 23:02:53 10° WNW 23:06:18 50° SW 23:10:45 10° SSE
SJ 16-02 1.5 23:02:28 12° S 23:06:21 62° ESE 23:10:34 10° NNE
Lacrosse 5 rocket 0.8 23:03:21 10° WNW 23:06:48 61° SSW 23:10:09 10° SE
PSLV R/B 3.8 23:03:48 10° NNE 23:07:41 82° WNW 23:11:14 12° SSW
Cosmos 1605 Rocket 4.1 23:01:32 10° N 23:07:52 86° E 23:14:05 10° S
CZ-2D R/B 4.4 23:04:50 10° NE 23:08:41 19° E 23:12:30 10° SE
NOSS 2-2 (C) 4.5 23:09:22 10° WNW 23:12:31 26° SW 23:16:27 10° S
CENTAUR R/B 3.3 23:06:18 10° NW 23:14:16 76° SW 23:23:37 10° SE
Cosmos 921 Rocket 3.2 23:10:28 11° SW 23:14:25 63° WNW 23:18:33 10° NNE
SL-8 R/B 4.3 23:11:41 10° W 23:15:54 32° SSW 23:20:07 10° SE
Spot 1 4.4 23:11:16 10° NNE 23:16:15 89° ESE 23:21:02 10° SSW
IDEFIX/ARIANE 42P 2.8 23:14:02 10° NNE 23:19:18 73° ESE 23:24:30 10° S
Cosmos 1455 Rocket 4.1 23:18:32 10° N 23:22:43 45° ENE 23:26:53 10° SE
FENGYUN 3A 4.0 23:18:30 10° NNE 23:23:51 63° ESE 23:29:10 10° S
Cosmos 2251 Rocket 4.2 23:19:06 10° S 23:24:15 51° ESE 23:29:27 10° NE
Cosmos 1378 Rocket 3.5 23:22:16 10° SSW 23:26:32 78° W 23:30:51 10° N
Cosmos 405 Rocket 2.0 23:24:33 10° S 23:27:28 86° ESE 23:30:28 10° NNE
Geosat 4.3 23:23:49 10° NNE 23:28:47 64° NW 23:33:43 10° SW
H-2A R/B 4.0 23:24:50 10° NE 23:29:06 25° E 23:33:15 10° SE
Nimbus 7 Rocket 4.5 23:23:31 10° NNE 23:29:27 90° WNW 23:35:19 10° SSW
MSX 3.9 23:23:43 10° NNE 23:29:32 85° ESE 23:35:18 10° SSW
Aureole 3 4.5 23:23:15 10° SSW 23:29:42 83° W 23:35:25 10° N
SeaSat 1 3.7 23:27:46 10° ESE 23:32:27 47° NE 23:37:09 10° NNW
Cosmos 2228 4.4 23:29:11 10° N 23:33:11 39° ENE 23:37:10 10° SE
Cosmos 2297 Rocket 2.4 23:28:45 10° NW 23:34:16 55° WSW 23:39:46 10° S
ADEOS II 4.2 23:30:58 10° NE 23:35:01 22° E 23:39:03 10° SE
Cosmos 468 Rocket 4.3 23:30:48 10° NW 23:35:42 47° WSW 23:40:33 10° S
Cosmos 1782 3.2 23:33:01 10° N 23:36:31 55° ENE 23:39:57 10° SSE
BREEZE-M DEB (TANK) 3.9 23:22:01 10° WSW 23:36:46 57° S 23:40:43 10° ESE
Cosmos 1437 Rocket 3.6 23:35:20 10° N 23:38:39 43° ENE 23:41:55 10° SE
NPP 3.8 23:34:36 10° NNE 23:40:03 80° ESE 23:45:27 10° SSW
Cosmos 2369 Rocket 3.9 23:35:59 10° W 23:40:41 27° NNW 23:45:25 10° NNE
Meteor 1-11 4.5 23:36:04 10° SSW 23:41:39 65° WNW 23:47:24 10° N
ARIANE 6 FM1 Upper Stage 4.4 23:38:56 10° WNW 23:42:40 32° NNW 23:46:20 10° NE
Cosmos 2084 Rocket 4.1 23:39:48 10° SSW 23:43:34 39° SE 23:47:24 10° ENE
Meteor 2-1 Rocket 4.5 23:38:03 10° NNW 23:43:42 58° W 23:49:27 10° S
USA 229 DEB 4.3 23:39:25 10° S 23:45:02 42° ESE 23:51:21 10° NE
USA 229 4.4 23:39:28 10° S 23:45:05 41° ESE 23:51:23 10° NE
USA 276 3.7 23:47:06 10° WSW 23:48:44 14° SSW 23:50:25 10° S
Okean 2 Rocket 3.2 23:45:00 10° NNW 23:49:18 56° W 23:53:34 10° S
Meteor 1-27 4.4 23:44:15 10° NNW 23:50:02 88° WSW 23:55:51 10° S
Cosmos 1980 Rocket 4.0 23:46:24 10° SSE 23:50:53 25° ESE 23:55:23 10° NE
Cosmos 2242 Rocket 4.4 23:48:12 10° SW 23:52:20 40° WNW 23:56:32 10° N
Cosmos 2263 Rocket 2.5 23:47:45 10° NNW 23:53:22 74° NE 23:58:59 10° SE
USA 308 2.7 23:49:58 10° W 23:53:57 74° S 23:58:05 10° ESE
